Location: Squirrel Cove
(50.1074°N, 124.9139°W)
Time: 19:06:06
(UTC-08:00)

Envisat - Pass Details

Date: 28 November 2022
Orbit: 763 x 765 km, 98.2° (Epoch: 05 February)

Event Time Altitude Azimuth Distance (km) Brightness Sun altitude
Rises 06:05:57 0° 5° (N) 3,247 6.2 -16.5°
Reaches altitude 10° 06:08:40 10° 351° (N) 2,316 5.3 -16.1°
Enters shadow 06:12:30 23° 303° (WNW) 1,592 4.1 -15.5°
